Back to catalog

COSMOS 372

AliveMilitaryLEO
NORAD 4588·PAYLOAD·🇷🇺 Russia

Launched Oct 16, 1970 from Plesetsk Cosmodrome

Loading…

Next Passes (next 24 hours)

TLE

FreshSource: Space-Track

Epoch: Sep 14, 2026, 14:18 UTC

1 04588U 70086A   26257.59645449  .00000069  00000-0  32156-4 0  9990
2 04588  74.0550  50.2519 0012808 157.5075 249.0215 14.36966862925762

Track COSMOS 372 in real time with AllMySat

Download on the App Store